Find Starlink 32233

NORAD ID: 60434 Int'l Des: 2024-144 Owner: SPXS Country: US Constellation: starlink operational
LEOCIRCULAR

实时位置

正在加载3D地球...

关于 Starlink 32233

正在加载描述...

即将过境

Passes for default location (London). Set your location on the main map for personalized predictions.

高度历史

Loading altitude history...

两行轨道根数

1 60434U 24144K 26122.50003471 .00095776 00000-0 28254-2 0 9992
2 60434 53.1589 327.0962 0003051 102.5668 92.2540 15.34223481 5804
Epoch: May 2, 2026 • Age: 5 hours

当前状态

高度 481.3 km
速度 7.62 km/s
星下点 -47.29°S, 154.83°E
发射日期 Aug 12, 2024
运行时间 1.7 years
类型 internet

技术详情

分类 Payload
质量 730.00 kg
干质量 700.00 kg
总质量 730.00 kg
长度 0.30 m
直径 4.10 m
跨度 29.00 m
形状 Box + pan
制造商 SPXS
平台类型 Starlink V2M
阶段状态 In Orbit
所有者/国家 SPXS/US

Most Searched